| time (UTC) | temp F | wind direction | speed knots | gust knots | rain 1hr in | rain 24hr in | rain mn in | humidity % | barometer mb |
| 20260504045423 | 69 | 81 | 1.7 | 6.1 | 0.00 | 0.00 | 0.00 | 36 | 1012.1 |
| 20260504044439 | 69 | 66 | 3.5 | 6.1 | 0.00 | 0.00 | 0.00 | 36 | 1011.9 |
| 20260504043440 | 69 | 111 | 0.9 | 2.6 | 0.00 | 0.00 | 0.00 | 34 | 1012.4 |
| 20260504042423 | 69 | 80 | 1.7 | 6.1 | 0.00 | 0.00 | 0.00 | 34 | 1011.6 |
| 20260504042325 | 70 | 138 | 0.9 | 6.1 | 0.00 | 0.00 | 0.00 | 34 | 1011.6 |
| 20260504042223 | 70 | 21 | 1.7 | 6.1 | 0.00 | 0.00 | 0.00 | 34 | 1011.5 |
| 20260504041223 | 70 | 107 | 0.0 | 1.7 | 0.00 | 0.00 | 0.00 | 32 | 1011.6 |
| 20260504040223 | 71 | 67 | 0.0 | 0.9 | 0.00 | 0.00 | 0.00 | 32 | 1011.5 |
| 20260504035240 | 71 | 74 | 3.5 | 5.2 | 0.00 | 0.00 | 0.00 | 32 | 1011.4 |
| 20260504034239 | 72 | 27 | 5.2 | 9.6 | 0.00 | 0.00 | 0.00 | 32 | 1011.2 |
| 20260504034122 | 72 | 31 | 3.5 | 7.0 | 0.00 | 0.00 | 0.00 | 32 | 1011.1 |
| 20260504033222 | 72 | 62 | 4.3 | 7.0 | 0.00 | 0.00 | 0.00 | 32 | 1011.1 |
| 20260504030424 | 73 | 63 | 3.5 | 7.0 | 0.00 | 0.00 | 0.00 | 32 | 1010.7 |
| 20260504025423 | 73 | 64 | 9.6 | 14.8 | 0.00 | 0.00 | 0.00 | 31 | 1010.6 |
| 20260504024439 | 74 | 56 | 3.5 | 7.0 | 0.00 | 0.00 | 0.00 | 30 | 1010.5 |
| 20260504023524 | 74 | 62 | 7.8 | 10.4 | 0.00 | 0.00 | 0.00 | 28 | 1010.4 |
| 20260504022521 | 75 | 77 | 7.0 | 13.9 | 0.00 | 0.00 | 0.00 | 26 | 1010.2 |
| 20260504021538 | 76 | 109 | 3.5 | 5.2 | 0.00 | 0.00 | 0.00 | 23 | 1010.3 |
| 20260504015541 | 77 | 94 | 3.5 | 3.5 | 0.00 | 0.00 | 0.00 | 23 | 1009.9 |
| 20260504014538 | 77 | 157 | 0.0 | 0.9 | 0.00 | 0.00 | 0.00 | 22 | 1009.8 |
| 20260504013538 | 77 | 128 | 1.7 | 2.6 | 0.00 | 0.00 | 0.00 | 22 | 1009.5 |
| 20260504012524 | 77 | 223 | 6.1 | 8.7 | 0.00 | 0.00 | 0.00 | 22 | 1010.2 |
| 20260504011521 | 78 | 191 | 4.3 | 7.0 | 0.00 | 0.00 | 0.00 | 23 | 1010.1 |
| 20260504010525 | 78 | 127 | 1.7 | 6.1 | 0.00 | 0.00 | 0.00 | 22 | 1010.0 |
| 20260504005540 | 79 | 91 | 7.0 | 12.2 | 0.00 | 0.00 | 0.00 | 21 | 1009.4 |
| 20260504004523 | 80 | 124 | 7.0 | 12.2 | 0.00 | 0.00 | 0.00 | 19 | 1010.2 |
| 20260504003540 | 79 | 118 | 4.3 | 7.0 | 0.00 | 0.00 | 0.00 | 19 | 1010.1 |
| 20260504002524 | 79 | 114 | 0.9 | 3.5 | 0.00 | 0.00 | 0.00 | 19 | 1010.1 |
| 20260504001523 | 80 | 129 | 3.5 | 5.2 | 0.00 | 0.00 | 0.00 | 17 | 1010.1 |
| 20260504000523 | 80 | 238 | 0.9 | 3.5 | 0.00 | 0.00 | 0.00 | 17 | 1010.3 |
| 20260503235622 | 79 | 53 | 1.7 | 5.2 | 0.00 | 0.00 | 0.00 | 18 | 1009.8 |
| 20260503233622 | 80 | 123 | 4.3 | 12.2 | 0.00 | 0.00 | 0.00 | 18 | 1010.0 |
| 20260503232640 | 80 | 115 | 7.0 | 12.2 | 0.00 | 0.00 | 0.00 | 17 | 1009.9 |
| 20260503231639 | 82 | 140 | 10.4 | 20.9 | 0.00 | 0.00 | 0.00 | 14 | 1009.6 |
| 20260503230637 | 83 | 111 | 4.3 | 8.7 | 0.00 | 0.00 | 0.00 | 13 | 1009.0 |
| 20260503224738 | 84 | 175 | 2.6 | 4.3 | 0.00 | 0.00 | 0.00 | 13 | 1008.8 |
| 20260503223821 | 85 | 127 | 2.6 | 3.5 | 0.00 | 0.00 | 0.00 | 12 | 1008.9 |
| 20260503222840 | 86 | 147 | 3.5 | 4.3 | 0.00 | 0.00 | 0.00 | 12 | 1009.0 |
| 20260503221923 | 86 | 145 | 0.0 | 0.9 | 0.00 | 0.00 | 0.00 | 12 | 1009.2 |
| 20260503220924 | 87 | 149 | 2.6 | 4.3 | 0.00 | 0.00 | 0.00 | 11 | 1009.5 |
| 20260503215940 | 87 | 204 | 4.3 | 6.1 | 0.00 | 0.00 | 0.00 | 11 | 1009.5 |
| 20260503214922 | 87 | 157 | 2.6 | 3.5 | 0.00 | 0.00 | 0.00 | 11 | 1009.8 |
| 20260503213924 | 86 | 292 | 0.9 | 1.7 | 0.00 | 0.00 | 0.00 | 10 | 1010.1 |
| 20260503212921 | 86 | 225 | 0.9 | 1.7 | 0.00 | 0.00 | 0.00 | 11 | 1010.4 |
| 20260503211940 | 88 | 267 | 3.5 | 6.1 | 0.00 | 0.00 | 0.00 | 11 | 1010.6 |
| 20260503210938 | 88 | 203 | 5.2 | 7.8 | 0.00 | 0.00 | 0.00 | 11 | 1010.7 |
| 20260503205921 | 89 | 208 | 5.2 | 9.6 | 0.00 | 0.00 | 0.00 | 11 | 1011.1 |
| 20260503204940 | 88 | 201 | 2.6 | 4.3 | 0.00 | 0.00 | 0.00 | 11 | 1011.1 |
| 20260503204021 | 87 | 337 | 1.7 | 2.6 | 0.00 | 0.00 | 0.00 | 11 | 1011.5 |
| 20260503203121 | 90 | 159 | 4.3 | 7.0 | 0.00 | 0.00 | 0.00 | 10 | 1011.7 |
| 20260503203022 | 89 | 201 | 4.3 | 6.1 | 0.00 | 0.00 | 0.00 | 11 | 1011.7 |
| 20260503202039 | 87 | 284 | 0.0 | 1.7 | 0.00 | 0.00 | 0.00 | 11 | 1011.9 |
| 20260503201124 | 86 | 303 | 0.9 | 3.5 | 0.00 | 0.00 | 0.00 | 12 | 1012.0 |
| 20260503200137 | 86 | 174 | 3.5 | 7.0 | 0.00 | 0.00 | 0.00 | 12 | 1012.2 |
| 20260503195139 | 87 | 205 | 2.6 | 4.3 | 0.00 | 0.00 | 0.00 | 11 | 1012.5 |
| 20260503195040 | 87 | 225 | 3.5 | 4.3 | 0.00 | 0.00 | 0.00 | 11 | 1012.6 |
| 20260503194124 | 87 | 252 | 1.7 | 5.2 | 0.00 | 0.00 | 0.00 | 11 | 1012.8 |
| 20260503193137 | 88 | 195 | 0.0 | 1.7 | 0.00 | 0.00 | 0.00 | 11 | 1012.9 |
| 20260503192124 | 87 | 179 | 4.3 | 6.1 | 0.00 | 0.00 | 0.00 | 11 | 1013.1 |
| 20260503191122 | 86 | 116 | 1.7 | 2.6 | 0.00 | 0.00 | 0.00 | 10 | 1013.2 |
| 20260503190141 | 86 | 331 | 0.9 | 2.6 | 0.00 | 0.00 | 0.00 | 11 | 1013.3 |
| 20260503185139 | 84 | 106 | 2.6 | 3.5 | 0.00 | 0.00 | 0.00 | 12 | 1013.7 |
| 20260503184222 | 84 | 211 | 2.6 | 4.3 | 0.00 | 0.00 | 0.00 | 12 | 1013.9 |
| 20260503183321 | 84 | 268 | 1.7 | 3.5 | 0.00 | 0.00 | 0.00 | 13 | 1014.2 |
| 20260503181422 | 81 | 232 | 3.5 | 4.3 | 0.00 | 0.00 | 0.00 | 14 | 1014.6 |
| 20260503180437 | 80 | 283 | 0.0 | 1.7 | 0.00 | 0.00 | 0.00 | 13 | 1014.9 |
| 20260503174540 | 82 | 199 | 0.9 | 3.5 | 0.00 | 0.00 | 0.00 | 14 | 1015.1 |
| 20260503173539 | 80 | 348 | 0.9 | 1.7 | 0.00 | 0.00 | 0.00 | 15 | 1015.4 |
| 20260503172521 | 78 | 202 | 1.7 | 2.6 | 0.00 | 0.00 | 0.00 | 15 | 1015.7 |
| 20260503171522 | 79 | 214 | 1.7 | 3.5 | 0.00 | 0.00 | 0.00 | 16 | 1015.9 |
| 20260503170522 | 78 | 161 | 0.9 | 2.6 | 0.00 | 0.00 | 0.00 | 17 | 1016.0 |
| 20260503150522 | 67 | 360 | 0.0 | 0.0 | 0.00 | 0.00 | 0.00 | 26 | 1017.4 |
| 20260503100122 | 57 | 337 | 0.9 | 1.7 | 0.00 | 0.00 | 0.00 | 27 | 1016.4 |
| 20260503081021 | 62 | 11 | 1.7 | 3.5 | 0.00 | 0.00 | 0.00 | 21 | 1016.8 |
| 20260503072137 | 63 | 351 | 2.6 | 4.3 | 0.00 | 0.00 | 0.00 | 22 | 1016.7 |
| 20260503071137 | 63 | 337 | 0.0 | 0.9 | 0.00 | 0.00 | 0.00 | 22 | 1016.7 |
| 20260503070221 | 63 | 337 | 0.9 | 3.5 | 0.00 | 0.00 | 0.00 | 21 | 1016.8 |
| 20260503054429 | 68 | 337 | 0.0 | 0.0 | 0.00 | 0.00 | 0.00 | 16 | 1016.0 |
| 20260503053429 | 69 | 315 | 1.7 | 2.6 | 0.00 | 0.00 | 0.00 | 15 | 1015.9 |
| 20260503053346 | 69 | 354 | 0.9 | 2.6 | 0.00 | 0.00 | 0.00 | 15 | 1015.9 |
| 20260503052330 | 70 | 337 | 1.7 | 2.6 | 0.00 | 0.00 | 0.00 | 13 | 1015.7 |
| 20260503051428 | 70 | 292 | 1.7 | 2.6 | 0.00 | 0.00 | 0.00 | 14 | 1015.6 |